Charlottesville, VA

4:29 AM EDT on October 17, 2019 (GMT -0400)
Charlottesville-Albemarle

Weather History for KCHO - August, 2019

Change the Weather History Date:

Thursday, August 29, 2019

  Actual Average Record
Temperature  
Mean Temperature 72 °F 72 °F  
Max Temperature 84 °F 83 °F 102 °F (1914)
Min Temperature 59 °F 61 °F 46 °F (1986)
Degree Days  
Heating Degree Days 0 0  
Month to date heating degree days 0 0  
Since 1 June heating degree days 0 12  
Since 1 July heating degree days 0 1  
Cooling Degree Days 7 8  
Month to date cooling degree days 369 266  
Year to date cooling degree days 1437 896  
Since 1 June cooling degree days 1151 810  
Growing Degree Days 22 (Base 50)    
Moisture  
Dew Point 55 °F    
Average Humidity 56    
Maximum Humidity 81    
Minimum Humidity 33    
Precipitation  
Precipitation 0.00 in 0.09 in 0.80 in (2009)
Month to date precipitation 2.65 3.46  
Year to date precipitation 27.95 27.98  
Sea Level Pressure  
Sea Level Pressure 30.00 in    
Wind  
Wind Speed 2 mph ()    
Max Wind Speed 10 mph    
Max Gust Speed 14 mph    
Visibility 10.0 miles    
Events      
T = Trace of Precipitation, MM = Missing Value Source: Averaged Metar Reports

Daily Weather History Graph

Daily Weather History Graph

Search for Another Location

Airport or City:

Astronomy

Aug. 29, 2019 Rise Set
Actual Time 6:40 AM EDT 7:48 PM EDT
Civil Twilight 6:13 AM EDT 8:15 PM EDT
Nautical Twilight 5:41 AM EDT 8:47 PM EDT
Astronomical Twilight 5:07 AM EDT 9:21 PM EDT
Moon 5:25 AM EDT (8/29) 7:42 PM EDT (8/29)
Length of Visible Light 14h 01m
Length of Day
13h 07m
Waning Crescent, 1% of the Moon is Illuminated
Aug 29
Waning Crescent
Aug 30
New
Sep 5
First Quarter
Sep 14
Full
Sep 21
Last Quarter

Hourly Weather History & Observations

Time (EDT) Temp. Heat Index Dew Point Humidity Pressure Visibility Wind Dir Wind Speed Gust Speed Precip Events Conditions
12:53 AM 69.1 °F - 54.0 °F 58% 29.93 in 10.0 mi Calm Calm - N/A   Clear
1:53 AM 69.1 °F - 53.1 °F 57% 29.93 in 10.0 mi Calm Calm - N/A   Clear
2:53 AM 68.0 °F - 52.0 °F 56% 29.94 in 10.0 mi Calm Calm - N/A   Clear
3:53 AM 68.0 °F - 52.0 °F 56% 29.94 in 10.0 mi WNW 3.5 mph - N/A   Clear
4:53 AM 64.9 °F - 53.1 °F 65% 29.95 in 10.0 mi West 3.5 mph - N/A   Clear
5:53 AM 61.0 °F - 54.0 °F 78% 29.97 in 10.0 mi Calm Calm - N/A   Clear
6:53 AM 63.0 °F - 53.1 °F 70% 29.99 in 10.0 mi WNW 3.5 mph - N/A   Clear
7:53 AM 64.9 °F - 55.9 °F 73% 30.01 in 10.0 mi Calm Calm - N/A   Clear
8:53 AM 70.0 °F - 57.0 °F 63% 30.02 in 10.0 mi Calm Calm - N/A   Clear
9:53 AM 75.9 °F - 55.0 °F 48% 30.03 in 10.0 mi Calm Calm - N/A   Clear
10:53 AM 78.1 °F - 54.0 °F 43% 30.05 in 10.0 mi NNW 6.9 mph - N/A   Clear
11:53 AM 79.0 °F - 53.1 °F 40% 30.05 in 10.0 mi Variable 4.6 mph - N/A   Clear
12:53 PM 80.1 °F 80.0 °F 54.0 °F 40% 30.04 in 10.0 mi Calm Calm - N/A   Clear
2:53 PM 82.0 °F 81.3 °F 54.0 °F 38% 30.00 in 10.0 mi Variable 5.8 mph - N/A   Clear
3:53 PM 82.9 °F 82.0 °F 55.0 °F 38% 29.98 in 10.0 mi South 5.8 mph - N/A   Clear
4:53 PM 84.9 °F 83.2 °F 53.1 °F 33% 29.98 in 10.0 mi NW 3.5 mph - N/A   Clear
5:53 PM 84.0 °F 82.9 °F 55.0 °F 37% 29.98 in 10.0 mi Calm Calm - N/A   Clear
6:53 PM 81.0 °F 81.0 °F 57.0 °F 44% 29.99 in 10.0 mi Calm Calm - N/A   Clear
7:53 PM 77.0 °F - 55.9 °F 48% 30.00 in 10.0 mi SSW 3.5 mph - N/A   Clear
8:53 PM 69.1 °F - 57.9 °F 68% 30.01 in 10.0 mi Calm Calm - N/A   Clear
9:53 PM 68.0 °F - 60.1 °F 76% 30.03 in 10.0 mi NW 4.6 mph - N/A   Clear
10:53 PM 68.0 °F - 59.0 °F 73% 30.04 in 10.0 mi Calm Calm - N/A   Clear
11:53 PM 66.0 °F - 60.1 °F 81% 30.04 in 10.0 mi West 3.5 mph - N/A   Clear